| time (UTC) | temp C | wind direction | speed KPH | gust KPH | rain 1hr cm | rain 24hr cm | rain mn cm | humidity % | barometer mb |
| 20260510171505 | 15 | 297 | 1.6 | 11.3 | 0.13 | 0.46 | 0.13 | 81 | 1008.4 |
| 20260510170042 | 13 | 264 | 1.6 | 12.9 | 0.13 | 0.46 | 0.13 | 86 | 1008.5 |
| 20260510164506 | 13 | 264 | 0.0 | 6.4 | 0.10 | 0.56 | 0.10 | 86 | 1008.7 |
| 20260510163043 | 13 | 197 | 0.0 | 0.0 | 0.00 | 0.46 | 0.00 | 82 | 1008.5 |
| 20260510161520 | 13 | 204 | 0.0 | 0.0 | 0.00 | 0.46 | 0.00 | 83 | 1008.5 |
| 20260510160018 | 14 | 204 | 0.0 | 0.0 | 0.00 | 0.46 | 0.00 | 83 | 1008.6 |
| 20260510154557 | 14 | 139 | 0.0 | 9.7 | 0.00 | 0.58 | 0.00 | 77 | 1008.1 |
| 20260510153033 | 14 | 149 | 3.2 | 11.3 | 0.00 | 0.58 | 0.00 | 77 | 1008.3 |
| 20260510151506 | 15 | 122 | 1.6 | 11.3 | 0.00 | 0.58 | 0.00 | 79 | 1008.1 |
| 20260510150056 | 13 | 200 | 3.2 | 9.7 | 0.00 | 0.58 | 0.00 | 82 | 1008.0 |
| 20260510144525 | 13 | 162 | 1.6 | 11.3 | 0.00 | 0.58 | 0.00 | 85 | 1008.0 |
| 20260510143034 | 12 | 141 | 1.6 | 8.0 | 0.00 | 0.58 | 0.00 | 83 | 1008.0 |
| 20260510141525 | 12 | 158 | 1.6 | 4.8 | 0.00 | 0.58 | 0.00 | 84 | 1008.0 |
| 20260510140055 | 12 | 169 | 1.6 | 8.0 | 0.00 | 0.58 | 0.00 | 86 | 1008.0 |
| 20260510134527 | 11 | 158 | 3.2 | 9.7 | 0.00 | 0.58 | 0.00 | 88 | 1008.1 |
| 20260510133016 | 11 | 208 | 3.2 | 9.7 | 0.00 | 0.58 | 0.00 | 89 | 1008.3 |
| 20260510131553 | 11 | 127 | 1.6 | 11.3 | 0.00 | 0.58 | 0.00 | 91 | 1008.3 |
| 20260510130023 | 10 | 159 | 6.4 | 12.9 | 0.00 | 0.58 | 0.00 | 91 | 1008.0 |
| 20260510124600 | 10 | 158 | 1.6 | 12.9 | 0.00 | 0.58 | 0.00 | 93 | 1007.9 |
| 20260510123015 | 10 | 168 | 1.6 | 12.9 | 0.00 | 0.58 | 0.00 | 95 | 1008.1 |
| 20260510121550 | 10 | 143 | 4.8 | 12.9 | 0.00 | 0.58 | 0.00 | 95 | 1008.1 |
| 20260510120040 | 9 | 147 | 6.4 | 14.5 | 0.00 | 0.58 | 0.00 | 96 | 1008.1 |
| 20260510114534 | 9 | 158 | 1.6 | 9.7 | 0.00 | 0.58 | 0.00 | 96 | 1008.1 |
| 20260510113001 | 9 | 180 | 3.2 | 9.7 | 0.00 | 0.58 | 0.00 | 96 | 1007.8 |
| 20260510111539 | 9 | 134 | 4.8 | 9.7 | 0.00 | 0.58 | 0.00 | 96 | 1007.7 |
| 20260510110109 | 9 | 164 | 4.8 | 11.3 | 0.00 | 0.58 | 0.00 | 96 | 1007.7 |
| 20260510104529 | 9 | 214 | 3.2 | 11.3 | 0.00 | 0.58 | 0.00 | 96 | 1007.6 |
| 20260510103057 | 9 | 193 | 1.6 | 9.7 | 0.00 | 0.58 | 0.00 | 96 | 1007.2 |
| 20260510101519 | 9 | 180 | 1.6 | 9.7 | 0.00 | 0.58 | 0.00 | 96 | 1006.9 |
| 20260510100041 | 9 | 157 | 3.2 | 11.3 | 0.00 | 0.58 | 0.00 | 95 | 1006.5 |
| 20260510094523 | 9 | 174 | 3.2 | 9.7 | 0.00 | 0.58 | 0.00 | 95 | 1006.2 |
| 20260510093041 | 9 | 152 | 4.8 | 9.7 | 0.00 | 0.58 | 0.00 | 95 | 1006.0 |
| 20260510091519 | 9 | 145 | 6.4 | 11.3 | 0.00 | 0.58 | 0.00 | 95 | 1006.0 |
| 20260510090044 | 8 | 193 | 4.8 | 9.7 | 0.00 | 0.58 | 0.00 | 95 | 1006.1 |
| 20260510084523 | 8 | 155 | 1.6 | 6.4 | 0.00 | 0.58 | 0.00 | 95 | 1006.3 |
| 20260510083057 | 9 | 169 | 0.0 | 6.4 | 0.00 | 0.58 | 0.00 | 95 | 1006.7 |
| 20260510081542 | 8 | 166 | 3.2 | 14.5 | 0.00 | 0.58 | 0.00 | 95 | 1006.6 |
| 20260510080020 | 8 | 162 | 0.0 | 6.4 | 0.00 | 0.58 | 0.00 | 95 | 1006.8 |
| 20260510074543 | 9 | 142 | 0.0 | 9.7 | 0.00 | 0.58 | 0.00 | 95 | 1006.8 |
| 20260510073015 | 8 | 125 | 3.2 | 9.7 | 0.00 | 0.58 | 0.00 | 95 | 1006.8 |
| 20260510071558 | 8 | 156 | 3.2 | 9.7 | 0.00 | 0.58 | 0.00 | 95 | 1006.7 |
| 20260510070027 | 8 | 110 | 3.2 | 8.0 | 0.00 | 0.58 | 0.00 | 95 | 1006.7 |
| 20260510064553 | 8 | 143 | 3.2 | 11.3 | 0.00 | 0.58 | 0.00 | 95 | 1006.8 |
| 20260510063035 | 8 | 87 | 1.6 | 6.4 | 0.00 | 0.58 | 0.00 | 95 | 1006.9 |
| 20260510061527 | 8 | 137 | 0.0 | 4.8 | 0.00 | 0.58 | 0.00 | 95 | 1006.8 |
| 20260510060057 | 8 | 171 | 0.0 | 11.3 | 0.00 | 0.58 | 0.00 | 95 | 1007.0 |
| 20260510054524 | 8 | 127 | 4.8 | 11.3 | 0.00 | 0.58 | 0.00 | 95 | 1006.7 |
| 20260510053003 | 8 | 125 | 4.8 | 12.9 | 0.00 | 0.58 | 0.00 | 95 | 1006.9 |
| 20260510051549 | 8 | 112 | 1.6 | 9.7 | 0.00 | 0.58 | 0.00 | 95 | 1007.2 |
| 20260510050021 | 8 | 139 | 4.8 | 11.3 | 0.00 | 0.58 | 0.00 | 95 | 1007.0 |
| 20260510044547 | 8 | 184 | 3.2 | 12.9 | 0.00 | 0.58 | 0.00 | 95 | 1007.6 |
| 20260510043020 | 8 | 141 | 3.2 | 14.5 | 0.00 | 0.58 | 0.00 | 95 | 1007.5 |
| 20260510041637 | 8 | 118 | 4.8 | 11.3 | 0.00 | 0.58 | 0.00 | 95 | 1007.2 |
| 20260510040030 | 8 | 146 | 0.0 | 3.2 | 0.00 | 0.58 | 0.00 | 95 | 1007.2 |
| 20260510034601 | 8 | 145 | 0.0 | 4.8 | 0.00 | 0.58 | 0.58 | 94 | 1007.4 |
| 20260510033021 | 8 | 114 | 1.6 | 9.7 | 0.00 | 0.58 | 0.58 | 94 | 1007.3 |
| 20260510031604 | 8 | 103 | 1.6 | 9.7 | 0.00 | 0.58 | 0.58 | 94 | 1007.4 |
| 20260510030037 | 8 | 133 | 1.6 | 6.4 | 0.00 | 0.58 | 0.58 | 94 | 1007.4 |
| 20260510024513 | 7 | 101 | 3.2 | 12.9 | 0.00 | 0.58 | 0.58 | 95 | 1007.6 |
| 20260510023046 | 7 | 125 | 4.8 | 12.9 | 0.00 | 0.58 | 0.58 | 94 | 1007.4 |
| 20260510021607 | 7 | 139 | 0.0 | 4.8 | 0.00 | 0.58 | 0.58 | 94 | 1007.7 |
| 20260510020031 | 7 | 79 | 3.2 | 11.3 | 0.00 | 0.58 | 0.58 | 94 | 1007.8 |
| 20260510014508 | 7 | 106 | 1.6 | 6.4 | 0.00 | 0.58 | 0.58 | 94 | 1007.8 |
| 20260510013052 | 7 | 83 | 1.6 | 4.8 | 0.00 | 0.58 | 0.58 | 94 | 1007.9 |
| 20260510011514 | 7 | 81 | 0.0 | 8.0 | 0.00 | 0.58 | 0.58 | 94 | 1007.8 |
| 20260510010045 | 7 | 169 | 1.6 | 9.7 | 0.00 | 0.58 | 0.58 | 94 | 1007.8 |
| 20260510004514 | 7 | 118 | 3.2 | 11.3 | 0.00 | 0.58 | 0.58 | 94 | 1007.7 |
| 20260510003048 | 7 | 160 | 1.6 | 11.3 | 0.00 | 0.58 | 0.58 | 94 | 1007.6 |
| 20260510001529 | 7 | 120 | 0.0 | 3.2 | 0.00 | 0.58 | 0.58 | 94 | 1007.4 |
| 20260510000018 | 7 | 114 | 0.0 | 4.8 | 0.00 | 0.58 | 0.58 | 94 | 1007.2 |
| 20260509234559 | 7 | 39 | 1.6 | 6.4 | 0.00 | 0.58 | 0.58 | 94 | 1007.0 |
| 20260509233043 | 7 | 105 | 4.8 | 11.3 | 0.00 | 0.58 | 0.58 | 94 | 1006.9 |
| 20260509231517 | 7 | 145 | 0.0 | 4.8 | 0.00 | 0.58 | 0.58 | 94 | 1007.0 |
| 20260509230007 | 7 | 144 | 0.0 | 1.6 | 0.00 | 0.58 | 0.58 | 94 | 1007.0 |
| 20260509224558 | 7 | 155 | 0.0 | 4.8 | 0.00 | 0.58 | 0.58 | 94 | 1007.2 |
| 20260509223043 | 7 | 156 | 0.0 | 4.8 | 0.00 | 0.58 | 0.58 | 94 | 1007.1 |
| 20260509221504 | 7 | 157 | 0.0 | 4.8 | 0.00 | 0.58 | 0.58 | 94 | 1007.2 |
| 20260509220048 | 7 | 160 | 0.0 | 4.8 | 0.00 | 0.58 | 0.58 | 94 | 1007.2 |
| 20260509214529 | 7 | 166 | 1.6 | 6.4 | 0.00 | 0.58 | 0.58 | 94 | 1007.4 |
| 20260509213015 | 7 | 166 | 0.0 | 4.8 | 0.00 | 0.58 | 0.58 | 94 | 1007.7 |
| 20260509211544 | 7 | 166 | 1.6 | 8.0 | 0.00 | 0.58 | 0.58 | 94 | 1007.7 |
| 20260509210015 | 7 | 206 | 1.6 | 4.8 | 0.00 | 0.58 | 0.58 | 94 | 1007.8 |
| 20260509204543 | 7 | 203 | 3.2 | 9.7 | 0.03 | 0.58 | 0.58 | 94 | 1007.8 |
| 20260509203008 | 7 | 160 | 1.6 | 6.4 | 0.03 | 0.58 | 0.58 | 93 | 1007.7 |
| 20260509201539 | 7 | 171 | 0.0 | 4.8 | 0.08 | 0.58 | 0.58 | 94 | 1007.9 |
| 20260509200018 | 7 | 172 | 1.6 | 3.2 | 0.13 | 0.58 | 0.58 | 94 | 1007.9 |
| 20260509194504 | 7 | 172 | 0.0 | 4.8 | 0.13 | 0.56 | 0.56 | 94 | 1008.0 |
| 20260509193024 | 7 | 164 | 1.6 | 6.4 | 0.15 | 0.56 | 0.56 | 94 | 1008.1 |
| 20260509191505 | 7 | 208 | 1.6 | 4.8 | 0.10 | 0.51 | 0.51 | 93 | 1008.3 |
| 20260509190035 | 7 | 208 | 0.0 | 4.8 | 0.10 | 0.46 | 0.46 | 93 | 1008.5 |
| 20260509184601 | 7 | 120 | 0.0 | 3.2 | 0.10 | 0.43 | 0.43 | 93 | 1008.5 |
| 20260509183037 | 7 | 112 | 0.0 | 4.8 | 0.10 | 0.41 | 0.41 | 93 | 1008.5 |
| 20260509181526 | 7 | 162 | 1.6 | 8.0 | 0.10 | 0.38 | 0.38 | 92 | 1008.6 |
| 20260509180059 | 7 | 178 | 1.6 | 6.4 | 0.10 | 0.36 | 0.36 | 93 | 1008.7 |
| 20260509174531 | 7 | 149 | 0.0 | 4.8 | 0.10 | 0.33 | 0.33 | 92 | 1008.8 |
| 20260509173119 | 6 | 148 | 3.2 | 9.7 | 0.10 | 0.30 | 0.30 | 91 | 1009.0 |